Weather History for EHAM - November, 2012

Change the Weather History Date:

Sunday, November 25, 2012

  Actual Average Record
Temperature  
Mean Temperature 49 °F -  
Max Temperature 53 °F 43 °F 60 °F (2006)
Min Temperature 45 °F 35 °F 26 °F (2004)
Degree Days  
Heating Degree Days 16    
Moisture  
Dew Point 44 °F    
Average Humidity 79    
Maximum Humidity 94    
Minimum Humidity 54    
Precipitation  
Precipitation 0.02 in - - ()
Sea Level Pressure  
Sea Level Pressure 29.63 in    
Wind  
Wind Speed 22 mph ()    
Max Wind Speed 37 mph    
Max Gust Speed 50 mph    
Visibility 6.5 miles    
Events Rain    
Averages and records for this station are not official NWS values.
T = Trace of Precipitation, MM = Missing Value Source: Averaged Metar Reports

Daily Weather History Graph

Daily Weather History Graph

Search for Another Location

Airport or City:

Trip Planner

Search our weather history database for the weather conditions in past years. The results will help you decide how hot, cold, wet, or windy it might be!

Date:

Astronomy

Nov. 25, 2012 Rise Set
Actual Time 8:19 AM CET 4:36 PM CET
Civil Twilight 7:40 AM CET 5:15 PM CET
Nautical Twilight 6:57 AM CET 5:57 PM CET
Astronomical Twilight 6:16 AM CET 6:38 PM CET
Moon 2:59 PM CET (11/25) 5:01 AM CET (11/25)
Length of Visible Light 9h 35m
Length of Day
8h 16m
Waxing Gibbous, 91% of the Moon is Illuminated
Nov 25
Waxing Gibbous
Nov 28
Full
Dec 6
Last Quarter
Dec 13
New
Dec 20
First Quarter

Hourly Weather History & Observations

Time (CET) Temp. Dew Point Humidity Pressure Visibility Wind Dir Wind Speed Gust Speed Precip Events Conditions
12:25 AM 48.2 °F 46.4 °F 93% 29.68 in 4.3 mi East 13.8 mph - N/A   Scattered Clouds
12:55 AM 48.2 °F 46.4 °F 93% 29.65 in 4.3 mi ESE 17.3 mph - N/A   Unknown
1:00 AM 48 °F 46 °F 89% 29.67 in 4 mi ESE 15.7 mph - -   Mist
1:25 AM 48.2 °F 46.4 °F 93% 29.62 in 4.3 mi ESE 17.3 mph - N/A Rain Light Rain
1:55 AM 48.2 °F 46.4 °F 93% 29.59 in 5.0 mi ESE 17.3 mph - N/A   Unknown
2:25 AM 50.0 °F 46.4 °F 87% 29.59 in 6.2 mi ESE 16.1 mph - N/A   Partly Cloudy
2:55 AM 50.0 °F 46.4 °F 87% 29.56 in 6.2 mi SE 16.1 mph - N/A   Mostly Cloudy
3:25 AM 50.0 °F 46.4 °F 87% 29.53 in 6.2 mi SE 16.1 mph - N/A   Scattered Clouds
3:55 AM 51.8 °F 48.2 °F 88% 29.53 in 6.2 mi SSE 20.7 mph - N/A   Scattered Clouds
4:00 AM 52 °F 48 °F 80% 29.53 in 7 mi SSE 20.1 mph - -   Overcast
4:25 AM 51.8 °F 48.2 °F 88% 29.50 in 6.2 mi SSE 19.6 mph - N/A   Mostly Cloudy
4:55 AM 51.8 °F 50.0 °F 94% 29.47 in 3.1 mi South 23.0 mph - N/A   Drizzle
5:25 AM 51.8 °F 50.0 °F 94% 29.47 in 6.2 mi South 20.7 mph - N/A   Mostly Cloudy
5:55 AM 53.6 °F 50.0 °F 88% 29.47 in 6.2 mi South 20.7 mph - N/A   Mostly Cloudy
6:25 AM 53.6 °F 46.4 °F 77% 29.47 in 6.2 mi SSW 29.9 mph 41.4 mph N/A   Mostly Cloudy
6:55 AM 53.6 °F 46.4 °F 77% 29.47 in 6.2 mi SSW 29.9 mph 46.0 mph N/A   Mostly Cloudy
7:00 AM 53 °F 47 °F 73% 29.49 in 14 mi SSW 31.3 mph - -   Partly Cloudy
7:25 AM 51.8 °F 46.4 °F 82% 29.50 in 6.2 mi SSW 28.8 mph 44.9 mph N/A Rain Light Rain
7:55 AM 50.0 °F 48.2 °F 94% 29.50 in 5.6 mi SSW 31.1 mph 43.7 mph N/A Rain Light Rain
8:25 AM 50.0 °F 46.4 °F 87% 29.50 in 6.2 mi SSW 28.8 mph - N/A Rain Light Rain
8:55 AM 51.8 °F 44.6 °F 76% 29.53 in 6.2 mi SSW 35.7 mph 49.5 mph N/A   Mostly Cloudy
9:25 AM 50.0 °F 44.6 °F 82% 29.53 in 6.2 mi SW 33.4 mph - N/A Rain Light Rain Showers
9:55 AM 50.0 °F 44.6 °F 82% 29.56 in 6.2 mi SSW 31.1 mph 43.7 mph N/A Rain Light Rain Showers
10:00 AM 49 °F 44 °F 78% 29.57 in 7 mi SSW 31.3 mph - - Rain Light Rain Showers
10:25 AM 50.0 °F 42.8 °F 76% 29.56 in 6.2 mi SW 29.9 mph - N/A Rain Light Rain Showers
10:55 AM 50.0 °F 41.0 °F 71% 29.59 in 6.2 mi SW 36.8 mph 48.3 mph N/A Rain Light Rain Showers
11:25 AM 50.0 °F 41.0 °F 71% 29.59 in 6.2 mi SW 31.1 mph 42.6 mph N/A Rain Light Rain Showers
11:55 AM 48.2 °F 39.2 °F 71% 29.62 in 6.2 mi SW 34.5 mph 48.3 mph N/A   Mostly Cloudy
12:25 PM 48.2 °F 39.2 °F 71% 29.62 in 6.2 mi SW 35.7 mph 48.3 mph N/A   Mostly Cloudy
12:55 PM 50.0 °F 37.4 °F 62% 29.65 in 6.2 mi SW 35.7 mph 47.2 mph N/A   Scattered Clouds
1:00 PM 50 °F 38 °F 54% 29.66 in 13 mi SW 35.8 mph - -   Partly Cloudy
1:25 PM 50.0 °F 37.4 °F 62% 29.65 in 6.2 mi WSW 34.5 mph 46.0 mph N/A   Scattered Clouds
1:55 PM 50.0 °F 37.4 °F 62% 29.65 in 6.2 mi WSW 32.2 mph 43.7 mph N/A   Partly Cloudy
2:25 PM 50.0 °F 39.2 °F 66% 29.65 in 6.2 mi WSW 34.5 mph 49.5 mph N/A   Partly Cloudy
2:55 PM 51.8 °F 39.2 °F 62% 29.68 in 6.2 mi SW 33.4 mph 47.2 mph N/A   Partly Cloudy
3:25 PM 51.8 °F 41.0 °F 67% 29.68 in 6.2 mi WSW 32.2 mph 43.7 mph N/A   Partly Cloudy
3:55 PM 51.8 °F 41.0 °F 67% 29.68 in 6.2 mi SW 29.9 mph - N/A   Mostly Cloudy
4:00 PM 51 °F 42 °F 63% 29.71 in 11 mi SW 29.1 mph - -   Overcast
4:25 PM 50.0 °F 42.8 °F 76% 29.71 in 6.2 mi SW 25.3 mph 36.8 mph N/A   Mostly Cloudy
4:55 PM 50.0 °F 44.6 °F 82% 29.71 in 6.2 mi SW 26.5 mph 39.1 mph N/A   Mostly Cloudy
5:25 PM 50.0 °F 44.6 °F 82% 29.71 in 6.2 mi SW 25.3 mph - N/A   Mostly Cloudy
5:55 PM 50.0 °F 44.6 °F 82% 29.74 in 6.2 mi SW 25.3 mph - N/A   Mostly Cloudy
6:25 PM 50.0 °F 44.6 °F 82% 29.74 in 6.2 mi SW 24.2 mph - N/A   Mostly Cloudy
6:55 PM 50.0 °F 44.6 °F 82% 29.74 in 6.2 mi SW 25.3 mph 36.8 mph N/A Rain Light Rain Showers
7:00 PM 49 °F 45 °F 83% 29.75 in 6 mi SW 24.6 mph - - Rain Light Rain Showers
7:25 PM 50.0 °F 44.6 °F 82% 29.74 in 6.2 mi SW 24.2 mph - N/A   Mostly Cloudy
7:55 PM 50.0 °F 44.6 °F 82% 29.74 in 6.2 mi SW 23.0 mph - N/A   Mostly Cloudy
8:25 PM 50.0 °F 44.6 °F 82% 29.74 in 6.2 mi SW 24.2 mph - N/A   Mostly Cloudy
8:55 PM 50.0 °F 42.8 °F 76% 29.74 in 6.2 mi SW 23.0 mph - N/A   Mostly Cloudy
9:25 PM 50.0 °F 42.8 °F 76% 29.77 in 6.2 mi SW 23.0 mph - N/A Rain Light Rain Showers
9:55 PM 50.0 °F 42.8 °F 76% 29.77 in 6.2 mi SW 18.4 mph - N/A   Mostly Cloudy
10:00 PM 49 °F 43 °F 73% 29.78 in 17 mi SW 17.9 mph - - Rain Rain
10:25 PM 50.0 °F 42.8 °F 76% 29.77 in 6.2 mi SW 19.6 mph - N/A   Mostly Cloudy
10:55 PM 50.0 °F 42.8 °F 76% 29.77 in 6.2 mi SSW 20.7 mph - N/A   Mostly Cloudy
11:25 PM 48.2 °F 42.8 °F 82% 29.77 in 6.2 mi SSW 18.4 mph - N/A   Partly Cloudy
11:55 PM 48.2 °F 41.0 °F 76% 29.77 in 6.2 mi SSW 16.1 mph - N/A   Scattered Clouds